Location: Unspecified
(35.6961°N, 0.0000°E)
Time: 17:15:58
(UTC+00:00)

UNISAT 6 - Pass Details

Date: 16 June 2019
Orbit: 607 x 689 km, 97.8° (Epoch: 21 July)

Event Time Altitude Azimuth Distance (km) Brightness Sun altitude
Rises 20:46:13 0° 14° (NNE) 2,875 ? -15.1°
Reaches altitude 10° 20:48:24 10° 17° (NNE) 1,971 ? -15.5°
Maximum altitude 20:52:40 71° 101° (ESE) 653 ? -16.1°
Enters shadow 20:55:44 19° 183° (S) 1,494 ? -16.5°
